DECAYED
Showing default

TIANPING 1B, 43714 (Decayed)

Orbit data source: Space-Track

TIANPING 1B, 43714 was a payload satellite owned by Guoxing (CN) in LEO that was launched on Mon, 19 Nov 2018 UTC via a CHANG ZHENG 2D launch vehicle from the Jiuquan Satellite Launch Center, China (JSC). Payload-class satellites include a variety of spacecraft equipped with specific instruments for various scientific and technological missions. These include communications satellites like Starlink; space stations such as the ISS; scientific satellites like the Hubble; Earth observation satellites from companies like Planet Labs, Umbra, and HawkEye 360; GPS; miniature CubeSats for education and research; and military/defense satellites.

Not visible in the next 10 days
Identifier
43714, 2018-094E
Orbit
Decayed
Country
Flag of CNCN / PRC
Related business
Manufacturer
DFH Shenzhen
Mission
Decayed Commercial Calibration
Bus & Motor
PINA, Unknown motor
Mass
10 kg wet, ~10 kg dry
Launch date (UTC)
2018-11-19 (7 years ago)
Launch vehicle
CHANG ZHENG 2D
Launch site
Jiuquan Satellite Launch Center, China (JSC)
Object type
Payload
Rocket body
Debris
Shape & HBR
Box + 2 Pan, 0.3 m
Radar Cross Section
0.048 m², Medium (>0.1 m² and < 1m²)

Expand to show TLE details & history
Last TLE update: 2 weeks ago

TLE from 2 weeks ago
0 TIANPING 1B
1 43714U 18094E   25289.67216262  .12548926  25142-5  22463-3 0  9995
2 43714  97.2680 331.5159 0008426 265.1645  94.8697 16.47322341386642
Epoch: 2025-10-16T16:07Z
TLE epoch observation values (Epoch: 2025-10-16T16:07:54.850Z)
Latitude
0.00002°
Longitude
64.10883°
Altitude
150.133 km
Speed
7.816 km/s
True Right ascension
22h 06m 03s
True Declination
0° 00' 00"
Sunlit
Object was in full shadow at epoch
Visualization orbit readout
Latitude
Unknown
Longitude
Unknown
Altitude
Unknown
Speed
Unknown
Apparent Right ascension
Unknown
Apparent Declination
Unknown
Sunlit
N/A
Visualization observer readout
Local Sidereal Time
19:49:47
Azimuth
Unknown
Elevation
Unknown
Doppler factor
Unknown
Orbital elements
Apogee altitude
148.683 km
Perigee altitude
137.694 km
Semi-major axis
6,521.325 km
Eccentricity
0.00084
Inclination
97.268°
RAAN
331.5159°
Arg. of periapsis
265.1645°
True anomaly
94.9659°
Mean anomaly
94.8697°
Eccentric anomaly
94.9178°
Mean motion
4.12135 °/min
Orbital period
87.35 mins
BSTAR
0.00022463
Loading maneuver chart data...
Computing Atmospheric mass density...
Loading historical data...
Loading historical data...
Loading historical data...
Loading historical data...
Loading historical data...
Loading historical data...
Loading historical data...

Documentation

Showing up to 5 results
|